Time,TemperatureF,DewpointF,PressureIn,WindDirection,WindDirectionDegrees,WindSpeedMPH,WindSpeedGustMPH,Humidity,HourlyPrecipIn,Conditions,Clouds,dailyrainin,SoftwareType,DateUTC
2013-01-19 00:00:00,32.6,18.2,30.04,SW,224,7.0,7.0,55,0.00,,,0.00,Wunderground v.1.15,2013-01-19 05:00:00,
2013-01-19 00:03:00,32.7,17.9,30.04,SW,234,3.0,7.0,54,0.00,,,0.00,Wunderground v.1.15,2013-01-19 05:03:00,
2013-01-19 00:05:00,32.8,18.4,30.04,SW,234,1.0,7.0,55,0.00,,,0.00,Wunderground v.1.15,2013-01-19 05:05:00,
2013-01-19 00:10:00,32.9,18.5,30.03,WSW,248,2.0,3.0,55,0.00,,,0.00,Wunderground v.1.15,2013-01-19 05:10:00,
2013-01-19 00:16:00,33.0,18.1,30.04,WSW,251,2.0,5.0,54,0.00,,,0.00,Wunderground v.1.15,2013-01-19 05:16:00,
2013-01-19 00:21:00,33.1,18.7,30.04,West,264,2.0,3.0,55,0.00,,,0.00,Wunderground v.1.15,2013-01-19 05:21:00,
2013-01-19 00:26:00,33.2,18.3,30.04,South,187,7.0,7.0,54,0.00,,,0.00,Wunderground v.1.15,2013-01-19 05:26:00,
2013-01-19 00:32:00,33.3,18.4,30.04,SW,228,0.0,3.0,54,0.00,,,0.00,Wunderground v.1.15,2013-01-19 05:32:00,
2013-01-19 00:37:00,33.4,18.1,30.04,SW,221,3.0,8.0,53,0.00,,,0.00,Wunderground v.1.15,2013-01-19 05:37:00,
2013-01-19 00:43:00,33.5,18.2,30.03,SSW,205,1.0,4.0,53,0.00,,,0.00,Wunderground v.1.15,2013-01-19 05:43:00,
2013-01-19 00:49:00,33.5,18.2,30.02,WSW,251,3.0,4.0,53,0.00,,,0.00,Wunderground v.1.15,2013-01-19 05:49:00,
2013-01-19 00:55:00,33.5,18.6,30.02,SSW,194,3.0,3.0,54,0.00,,,0.00,Wunderground v.1.15,2013-01-19 05:55:00,
2013-01-19 01:00:00,33.5,18.2,30.02,South,173,5.0,5.0,53,0.00,,,0.00,Wunderground v.1.15,2013-01-19 06:00:00,
2013-01-19 01:05:00,33.5,18.6,30.02,SW,215,5.0,6.0,54,0.00,,,0.00,Wunderground v.1.15,2013-01-19 06:05:00,
2013-01-19 01:11:00,33.8,18.5,30.01,South,191,5.0,7.0,53,0.00,,,0.00,Wunderground v.1.15,2013-01-19 06:11:00,
2013-01-19 01:16:00,34.1,18.3,30.01,SSW,205,2.0,11.0,52,0.00,,,0.00,Wunderground v.1.15,2013-01-19 06:16:00,
2013-01-19 01:21:00,34.0,18.6,30.01,SSW,210,7.0,7.0,53,0.00,,,0.00,Wunderground v.1.15,2013-01-19 06:21:00,
2013-01-19 01:27:00,34.0,18.6,30.00,WSW,242,5.0,7.0,53,0.00,,,0.00,Wunderground v.1.15,2013-01-19 06:27:00,
2013-01-19 01:32:00,34.2,18.4,30.00,SW,215,3.0,5.0,52,0.00,,,0.00,Wunderground v.1.15,2013-01-19 06:32:00,
2013-01-19 01:38:00,34.5,18.7,30.00,SSW,211,4.0,8.0,52,0.00,,,0.00,Wunderground v.1.15,2013-01-19 06:38:00,
2013-01-19 01:43:00,34.6,19.2,30.00,South,190,5.0,6.0,53,0.00,,,0.00,Wunderground v.1.15,2013-01-19 06:43:00,
2013-01-19 01:49:00,35.0,18.7,30.00,SW,223,3.0,8.0,51,0.00,,,0.00,Wunderground v.1.15,2013-01-19 06:49:00,
2013-01-19 01:54:00,35.2,19.3,30.00,WSW,240,3.0,7.0,52,0.00,,,0.00,Wunderground v.1.15,2013-01-19 06:54:00,
2013-01-19 02:01:00,35.5,18.7,30.00,SW,233,5.0,5.0,50,0.00,,,0.00,Wunderground v.1.15,2013-01-19 07:01:00,
2013-01-19 02:06:00,35.6,18.8,30.00,SW,224,4.0,10.0,50,0.00,,,0.00,Wunderground v.1.15,2013-01-19 07:06:00,
2013-01-19 02:11:00,35.7,18.9,30.00,WSW,240,5.0,14.0,50,0.00,,,0.00,Wunderground v.1.15,2013-01-19 07:11:00,
2013-01-19 02:16:00,35.9,18.6,30.00,SSW,212,4.0,14.0,49,0.00,,,0.00,Wunderground v.1.15,2013-01-19 07:16:00,
2013-01-19 02:21:00,36.0,18.7,30.00,WSW,242,9.0,9.0,49,0.00,,,0.00,Wunderground v.1.15,2013-01-19 07:21:00,
2013-01-19 02:26:00,36.1,18.8,30.00,WSW,240,4.0,9.0,49,0.00,,,0.00,Wunderground v.1.15,2013-01-19 07:26:00,
2013-01-19 02:31:00,36.3,18.9,29.99,SW,232,5.0,7.0,49,0.00,,,0.00,Wunderground v.1.15,2013-01-19 07:31:00,
2013-01-19 02:36:00,36.3,18.9,29.99,SW,214,2.0,11.0,49,0.00,,,0.00,Wunderground v.1.15,2013-01-19 07:36:00,
2013-01-19 02:42:00,36.2,18.9,29.98,SW,221,6.0,8.0,49,0.00,,,0.00,Wunderground v.1.15,2013-01-19 07:42:00,
2013-01-19 02:47:00,36.4,19.0,29.98,SSW,204,3.0,11.0,49,0.00,,,0.00,Wunderground v.1.15,2013-01-19 07:47:00,
2013-01-19 02:52:00,36.5,19.1,29.98,SW,228,3.0,5.0,49,0.00,,,0.00,Wunderground v.1.15,2013-01-19 07:52:00,
2013-01-19 02:57:00,36.6,18.7,29.98,SW,232,10.0,10.0,48,0.00,,,0.00,Wunderground v.1.15,2013-01-19 07:57:00,
2013-01-19 03:02:00,36.9,19.0,29.98,SSW,196,4.0,12.0,48,0.00,,,0.00,Wunderground v.1.15,2013-01-19 08:02:00,
2013-01-19 03:07:00,37.1,18.7,29.98,SSW,209,5.0,12.0,47,0.00,,,0.00,Wunderground v.1.15,2013-01-19 08:07:00,
2013-01-19 03:12:00,37.2,18.8,29.97,SSW,196,5.0,11.0,47,0.00,,,0.00,Wunderground v.1.15,2013-01-19 08:12:00,
2013-01-19 03:17:00,37.3,19.4,29.97,SW,217,3.0,11.0,48,0.00,,,0.00,Wunderground v.1.15,2013-01-19 08:17:00,
2013-01-19 03:22:00,37.3,19.4,29.97,SW,232,2.0,13.0,48,0.00,,,0.00,Wunderground v.1.15,2013-01-19 08:22:00,
2013-01-19 03:27:00,37.3,19.4,29.97,SW,221,4.0,13.0,48,0.00,,,0.00,Wunderground v.1.15,2013-01-19 08:27:00,
2013-01-19 03:32:00,37.3,19.4,29.97,South,171,7.0,8.0,48,0.00,,,0.00,Wunderground v.1.15,2013-01-19 08:32:00,
2013-01-19 03:37:00,37.4,19.5,29.96,SW,225,3.0,11.0,48,0.00,,,0.00,Wunderground v.1.15,2013-01-19 08:37:00,
2013-01-19 03:42:00,37.5,19.6,29.96,SW,221,4.0,6.0,48,0.00,,,0.00,Wunderground v.1.15,2013-01-19 08:42:00,
2013-01-19 03:47:00,37.5,19.6,29.96,SSW,192,3.0,9.0,48,0.00,,,0.00,Wunderground v.1.15,2013-01-19 08:47:00,
2013-01-19 03:52:00,37.6,19.7,29.96,SW,221,5.0,10.0,48,0.00,,,0.00,Wunderground v.1.15,2013-01-19 08:52:00,
2013-01-19 03:57:00,37.8,19.8,29.96,SW,222,4.0,10.0,48,0.00,,,0.00,Wunderground v.1.15,2013-01-19 08:57:00,
2013-01-19 04:02:00,37.7,20.2,29.96,SSW,197,3.0,5.0,49,0.00,,,0.00,Wunderground v.1.15,2013-01-19 09:02:00,
2013-01-19 04:07:00,37.7,20.7,29.96,SW,223,7.0,9.0,50,0.00,,,0.00,Wunderground v.1.15,2013-01-19 09:07:00,
2013-01-19 04:12:00,37.7,20.2,29.96,WSW,244,4.0,9.0,49,0.00,,,0.00,Wunderground v.1.15,2013-01-19 09:12:00,
2013-01-19 04:17:00,37.9,20.4,29.95,WSW,251,3.0,10.0,49,0.00,,,0.00,Wunderground v.1.15,2013-01-19 09:17:00,
2013-01-19 04:22:00,37.9,20.4,29.95,SW,217,7.0,8.0,49,0.00,,,0.00,Wunderground v.1.15,2013-01-19 09:22:00,
2013-01-19 04:27:00,38.0,20.5,29.95,SW,219,5.0,8.0,49,0.00,,,0.00,Wunderground v.1.15,2013-01-19 09:27:00,
2013-01-19 04:32:00,38.1,21.1,29.95,SSW,206,7.0,11.0,50,0.00,,,0.00,Wunderground v.1.15,2013-01-19 09:32:00,
2013-01-19 04:37:00,38.3,21.3,29.95,SSW,213,4.0,12.0,50,0.00,,,0.00,Wunderground v.1.15,2013-01-19 09:37:00,
2013-01-19 04:42:00,38.5,21.5,29.95,SW,222,2.0,9.0,50,0.00,,,0.00,Wunderground v.1.15,2013-01-19 09:42:00,
2013-01-19 04:47:00,38.7,21.6,29.94,SSW,192,3.0,9.0,50,0.00,,,0.00,Wunderground v.1.15,2013-01-19 09:47:00,
2013-01-19 04:52:00,38.7,21.2,29.94,SSW,213,3.0,8.0,49,0.00,,,0.00,Wunderground v.1.15,2013-01-19 09:52:00,
2013-01-19 04:57:00,38.8,21.7,29.94,SSW,207,3.0,8.0,50,0.00,,,0.00,Wunderground v.1.15,2013-01-19 09:57:00,
2013-01-19 05:02:00,38.9,21.8,29.94,SW,215,3.0,5.0,50,0.00,,,0.00,Wunderground v.1.15,2013-01-19 10:02:00,
2013-01-19 05:07:00,38.9,21.8,29.94,WSW,239,4.0,7.0,50,0.00,,,0.00,Wunderground v.1.15,2013-01-19 10:07:00,
2013-01-19 05:12:00,39.0,21.9,29.93,SSW,211,4.0,7.0,50,0.00,,,0.00,Wunderground v.1.15,2013-01-19 10:12:00,
2013-01-19 05:17:00,39.1,21.5,29.93,SW,234,6.0,10.0,49,0.00,,,0.00,Wunderground v.1.15,2013-01-19 10:17:00,
2013-01-19 05:22:00,39.3,22.2,29.93,SW,218,4.0,8.0,50,0.00,,,0.00,Wunderground v.1.15,2013-01-19 10:22:00,
2013-01-19 05:27:00,39.3,22.2,29.93,SSW,207,4.0,8.0,50,0.00,,,0.00,Wunderground v.1.15,2013-01-19 10:27:00,
2013-01-19 05:32:00,39.3,22.2,29.93,WSW,244,5.0,7.0,50,0.00,,,0.00,Wunderground v.1.15,2013-01-19 10:32:00,
2013-01-19 05:38:00,39.4,22.3,29.93,SSW,200,3.0,9.0,50,0.00,,,0.00,Wunderground v.1.15,2013-01-19 10:38:00,
2013-01-19 05:43:00,39.6,22.0,29.93,WSW,246,3.0,8.0,49,0.00,,,0.00,Wunderground v.1.15,2013-01-19 10:43:00,
2013-01-19 05:48:00,39.5,22.4,29.93,SSW,202,4.0,8.0,50,0.00,,,0.00,Wunderground v.1.15,2013-01-19 10:48:00,
2013-01-19 05:53:00,39.3,22.7,29.93,SSW,213,2.0,7.0,51,0.00,,,0.00,Wunderground v.1.15,2013-01-19 10:53:00,
2013-01-19 05:58:00,39.2,22.1,29.93,SSW,205,5.0,8.0,50,0.00,,,0.00,Wunderground v.1.15,2013-01-19 10:58:00,
2013-01-19 06:03:00,39.2,22.1,29.94,SW,232,3.0,9.0,50,0.00,,,0.00,Wunderground v.1.15,2013-01-19 11:03:00,
2013-01-19 06:08:00,39.0,21.9,29.94,SSW,213,3.0,9.0,50,0.00,,,0.00,Wunderground v.1.15,2013-01-19 11:08:00,
2013-01-19 06:13:00,38.9,22.3,29.93,SSW,204,7.0,8.0,51,0.00,,,0.00,Wunderground v.1.15,2013-01-19 11:13:00,
2013-01-19 07:47:00,39.4,24.1,29.92,SSW,202,3.0,6.0,54,0.00,,,0.00,Wunderground v.1.15,2013-01-19 12:47:00,
2013-01-19 07:48:00,39.4,24.1,29.92,SSW,194,4.0,6.0,54,0.00,,,0.00,Wunderground v.1.15,2013-01-19 12:48:00,
2013-01-19 07:54:00,39.4,24.1,29.92,WSW,242,1.0,4.0,54,0.00,,,0.00,Wunderground v.1.15,2013-01-19 12:54:00,
2013-01-19 07:59:00,39.3,24.0,29.92,SSW,204,4.0,4.0,54,0.00,,,0.00,Wunderground v.1.15,2013-01-19 12:59:00,
2013-01-19 08:04:00,39.3,24.5,29.92,SSW,212,3.0,6.0,55,0.00,,,0.00,Wunderground v.1.15,2013-01-19 13:04:00,
2013-01-19 08:09:00,39.2,24.4,29.92,SW,227,2.0,6.0,55,0.00,,,0.00,Wunderground v.1.15,2013-01-19 13:09:00,
2013-01-19 08:14:00,39.4,24.6,29.92,South,185,2.0,7.0,55,0.00,,,0.00,Wunderground v.1.15,2013-01-19 13:14:00,
2013-01-19 08:19:00,39.5,24.7,29.92,SW,215,2.0,7.0,55,0.00,,,0.00,Wunderground v.1.15,2013-01-19 13:19:00,
2013-01-19 08:24:00,39.6,24.7,29.92,SSW,208,3.0,6.0,55,0.00,,,0.00,Wunderground v.1.15,2013-01-19 13:24:00,
2013-01-19 08:29:00,39.5,24.7,29.92,SSW,199,3.0,6.0,55,0.00,,,0.00,Wunderground v.1.15,2013-01-19 13:29:00,
2013-01-19 08:34:00,39.7,24.8,29.92,SW,225,4.0,6.0,55,0.00,,,0.00,Wunderground v.1.15,2013-01-19 13:34:00,
2013-01-19 08:39:00,39.9,25.0,29.92,SSW,211,3.0,6.0,55,0.00,,,0.00,Wunderground v.1.15,2013-01-19 13:39:00,
2013-01-19 08:44:00,40.2,25.3,29.92,West,261,4.0,12.0,55,0.00,,,0.00,Wunderground v.1.15,2013-01-19 13:44:00,
2013-01-19 08:49:00,40.7,25.8,29.92,WSW,244,4.0,12.0,55,0.00,,,0.00,Wunderground v.1.15,2013-01-19 13:49:00,
2013-01-19 08:54:00,41.1,25.7,29.92,WSW,253,4.0,9.0,54,0.00,,,0.00,Wunderground v.1.15,2013-01-19 13:54:00,
2013-01-19 08:59:00,41.3,25.4,29.92,SW,227,5.0,12.0,53,0.00,,,0.00,Wunderground v.1.15,2013-01-19 13:59:00,
2013-01-19 09:04:00,41.5,25.6,29.92,SW,236,7.0,7.0,53,0.00,,,0.00,Wunderground v.1.15,2013-01-19 14:04:00,
2013-01-19 09:09:00,41.7,25.8,29.93,SW,222,2.0,11.0,53,0.00,,,0.00,Wunderground v.1.15,2013-01-19 14:09:00,
2013-01-19 09:15:00,41.9,25.5,29.93,West,259,1.0,9.0,52,0.00,,,0.00,Wunderground v.1.15,2013-01-19 14:15:00,
2013-01-19 09:20:00,42.0,26.1,29.93,West,268,4.0,9.0,53,0.00,,,0.00,Wunderground v.1.15,2013-01-19 14:20:00,
2013-01-19 09:25:00,42.2,25.8,29.93,SW,214,3.0,6.0,52,0.00,,,0.00,Wunderground v.1.15,2013-01-19 14:25:00,
2013-01-19 09:30:00,42.5,26.1,29.93,SSW,200,6.0,8.0,52,0.00,,,0.00,Wunderground v.1.15,2013-01-19 14:30:00,
2013-01-19 09:35:00,42.7,26.7,29.93,SSW,199,5.0,9.0,53,0.00,,,0.00,Wunderground v.1.15,2013-01-19 14:35:00,
2013-01-19 09:40:00,42.7,25.8,29.93,SSW,210,3.0,5.0,51,0.00,,,0.00,Wunderground v.1.15,2013-01-19 14:40:00,
2013-01-19 09:45:00,42.8,25.9,29.94,WSW,252,3.0,9.0,51,0.00,,,0.00,Wunderground v.1.15,2013-01-19 14:45:00,
2013-01-19 09:50:00,42.8,25.9,29.94,SSE,155,8.0,8.0,51,0.00,,,0.00,Wunderground v.1.15,2013-01-19 14:50:00,
2013-01-19 09:55:00,42.9,26.5,29.94,SW,233,3.0,10.0,52,0.00,,,0.00,Wunderground v.1.15,2013-01-19 14:55:00,
2013-01-19 10:00:00,43.0,27.0,29.94,South,175,5.0,5.0,53,0.00,,,0.00,Wunderground v.1.15,2013-01-19 15:00:00,
2013-01-19 10:05:00,43.0,26.1,29.94,SW,219,4.0,11.0,51,0.00,,,0.00,Wunderground v.1.15,2013-01-19 15:05:00,
2013-01-19 10:10:00,43.1,26.2,29.93,West,262,4.0,9.0,51,0.00,,,0.00,Wunderground v.1.15,2013-01-19 15:10:00,
2013-01-19 10:15:00,43.3,26.8,29.93,South,184,4.0,9.0,52,0.00,,,0.00,Wunderground v.1.15,2013-01-19 15:15:00,
2013-01-19 10:20:00,43.5,26.6,29.93,SW,236,3.0,6.0,51,0.00,,,0.00,Wunderground v.1.15,2013-01-19 15:20:00,
2013-01-19 10:25:00,43.6,26.6,29.93,SW,234,6.0,7.0,51,0.00,,,0.00,Wunderground v.1.15,2013-01-19 15:25:00,
2013-01-19 10:30:00,43.8,26.8,29.93,SW,232,3.0,8.0,51,0.00,,,0.00,Wunderground v.1.15,2013-01-19 15:30:00,
2013-01-19 10:35:00,44.0,27.5,29.93,West,265,7.0,12.0,52,0.00,,,0.00,Wunderground v.1.15,2013-01-19 15:35:00,
2013-01-19 10:40:00,44.3,27.3,29.93,WSW,240,4.0,6.0,51,0.00,,,0.00,Wunderground v.1.15,2013-01-19 15:40:00,
2013-01-19 10:45:00,44.6,27.6,29.93,West,268,8.0,11.0,51,0.00,,,0.00,Wunderground v.1.15,2013-01-19 15:45:00,
2013-01-19 10:51:00,44.9,27.4,29.93,West,271,4.0,6.0,50,0.00,,,0.00,Wunderground v.1.15,2013-01-19 15:51:00,
2013-01-19 10:56:00,45.0,27.5,29.93,West,268,5.0,15.0,50,0.00,,,0.00,Wunderground v.1.15,2013-01-19 15:56:00,
2013-01-19 11:01:00,45.0,27.9,29.93,West,275,10.0,10.0,51,0.00,,,0.00,Wunderground v.1.15,2013-01-19 16:01:00,
2013-01-19 11:06:00,45.0,27.5,29.93,NW,318,6.0,13.0,50,0.00,,,0.00,Wunderground v.1.15,2013-01-19 16:06:00,
2013-01-19 11:11:00,45.1,27.6,29.92,WSW,257,6.0,8.0,50,0.00,,,0.00,Wunderground v.1.15,2013-01-19 16:11:00,
2013-01-19 11:16:00,45.2,28.1,29.92,WNW,285,7.0,10.0,51,0.00,,,0.00,Wunderground v.1.15,2013-01-19 16:16:00,
2013-01-19 11:21:00,45.4,28.3,29.92,WSW,258,6.0,6.0,51,0.00,,,0.00,Wunderground v.1.15,2013-01-19 16:21:00,
2013-01-19 11:26:00,45.6,28.5,29.92,WSW,254,6.0,14.0,51,0.00,,,0.00,Wunderground v.1.15,2013-01-19 16:26:00,
2013-01-19 11:31:00,45.9,28.3,29.92,West,271,7.0,15.0,50,0.00,,,0.00,Wunderground v.1.15,2013-01-19 16:31:00,
2013-01-19 11:36:00,46.2,29.1,29.92,SW,229,4.0,15.0,51,0.00,,,0.00,Wunderground v.1.15,2013-01-19 16:36:00,
2013-01-19 11:41:00,46.4,28.8,29.91,West,280,6.0,13.0,50,0.00,,,0.00,Wunderground v.1.15,2013-01-19 16:41:00,
2013-01-19 11:47:00,46.5,28.8,29.91,West,280,10.0,14.0,50,0.00,,,0.00,Wunderground v.1.15,2013-01-19 16:47:00,
2013-01-19 11:52:00,46.3,28.7,29.91,West,269,8.0,10.0,50,0.00,,,0.00,Wunderground v.1.15,2013-01-19 16:52:00,
2013-01-19 11:57:00,46.2,28.6,29.91,SW,236,6.0,14.0,50,0.00,,,0.00,Wunderground v.1.15,2013-01-19 16:57:00,
2013-01-19 12:02:00,46.4,28.8,29.90,WSW,248,5.0,14.0,50,0.00,,,0.00,Wunderground v.1.15,2013-01-19 17:02:00,
2013-01-19 12:07:00,46.7,29.0,29.90,WSW,248,13.0,14.0,50,0.00,,,0.00,Wunderground v.1.15,2013-01-19 17:07:00,
2013-01-19 12:12:00,47.0,29.8,29.90,WNW,288,3.0,7.0,51,0.00,,,0.00,Wunderground v.1.15,2013-01-19 17:12:00,
2013-01-19 12:17:00,47.5,30.3,29.90,WSW,250,10.0,13.0,51,0.00,,,0.00,Wunderground v.1.15,2013-01-19 17:17:00,
2013-01-19 12:22:00,47.7,30.0,29.90,WSW,239,5.0,10.0,50,0.00,,,0.00,Wunderground v.1.15,2013-01-19 17:22:00,
2013-01-19 12:28:00,47.6,29.4,29.89,West,275,12.0,14.0,49,0.00,,,0.00,Wunderground v.1.15,2013-01-19 17:28:00,
2013-01-19 12:33:00,47.1,29.4,29.90,West,259,10.0,19.0,50,0.00,,,0.00,Wunderground v.1.15,2013-01-19 17:33:00,
2013-01-19 12:38:00,47.0,29.3,29.89,West,276,9.0,19.0,50,0.00,,,0.00,Wunderground v.1.15,2013-01-19 17:38:00,
2013-01-19 12:43:00,47.1,29.4,29.89,West,263,5.0,14.0,50,0.00,,,0.00,Wunderground v.1.15,2013-01-19 17:43:00,
2013-01-19 12:48:00,47.4,29.7,29.89,West,263,6.0,15.0,50,0.00,,,0.00,Wunderground v.1.15,2013-01-19 17:48:00,
2013-01-19 12:54:00,48.0,29.7,29.88,West,261,4.0,14.0,49,0.00,,,0.00,Wunderground v.1.15,2013-01-19 17:54:00,
2013-01-19 12:59:00,48.2,29.9,29.88,WNW,302,9.0,23.0,49,0.00,,,0.00,Wunderground v.1.15,2013-01-19 17:59:00,
2013-01-19 13:04:00,48.1,30.3,29.88,WSW,254,5.0,11.0,50,0.00,,,0.00,Wunderground v.1.15,2013-01-19 18:04:00,
2013-01-19 13:09:00,48.5,30.2,29.88,WNW,290,7.0,17.0,49,0.00,,,0.00,Wunderground v.1.15,2013-01-19 18:09:00,
2013-01-19 13:14:00,48.4,30.1,29.87,WSW,246,7.0,13.0,49,0.00,,,0.00,Wunderground v.1.15,2013-01-19 18:14:00,
2013-01-19 13:19:00,47.9,29.6,29.88,West,278,7.0,16.0,49,0.00,,,0.00,Wunderground v.1.15,2013-01-19 18:19:00,
2013-01-19 13:24:00,47.4,29.7,29.88,SW,234,7.0,8.0,50,0.00,,,0.00,Wunderground v.1.15,2013-01-19 18:24:00,
2013-01-19 13:29:00,47.1,29.9,29.88,West,273,5.0,14.0,51,0.00,,,0.00,Wunderground v.1.15,2013-01-19 18:29:00,
2013-01-19 13:34:00,46.9,29.7,29.87,SW,234,6.0,14.0,51,0.00,,,0.00,Wunderground v.1.15,2013-01-19 18:34:00,
2013-01-19 13:39:00,46.8,29.6,29.87,WNW,294,4.0,14.0,51,0.00,,,0.00,Wunderground v.1.15,2013-01-19 18:39:00,
2013-01-19 13:44:00,46.8,29.6,29.88,SW,232,5.0,14.0,51,0.00,,,0.00,Wunderground v.1.15,2013-01-19 18:44:00,
2013-01-19 13:49:00,46.8,30.1,29.87,SW,219,6.0,14.0,52,0.00,,,0.00,Wunderground v.1.15,2013-01-19 18:49:00,
2013-01-19 13:54:00,46.9,30.2,29.88,West,266,6.0,12.0,52,0.00,,,0.00,Wunderground v.1.15,2013-01-19 18:54:00,
2013-01-19 14:01:00,46.8,30.1,29.87,South,187,7.0,17.0,52,0.00,,,0.00,Wunderground v.1.15,2013-01-19 19:01:00,
2013-01-19 14:06:00,46.8,30.6,29.88,WSW,239,11.0,17.0,53,0.00,,,0.00,Wunderground v.1.15,2013-01-19 19:06:00,
2013-01-19 14:11:00,46.8,30.1,29.87,NNW,327,9.0,9.0,52,0.00,,,0.00,Wunderground v.1.15,2013-01-19 19:11:00,
2013-01-19 14:17:00,46.8,30.6,29.87,West,264,4.0,17.0,53,0.00,,,0.00,Wunderground v.1.15,2013-01-19 19:17:00,
2013-01-19 14:22:00,46.8,30.1,29.87,SSW,208,6.0,8.0,52,0.00,,,0.00,Wunderground v.1.15,2013-01-19 19:22:00,
2013-01-19 14:27:00,46.7,30.5,29.87,WSW,239,5.0,13.0,53,0.00,,,0.00,Wunderground v.1.15,2013-01-19 19:27:00,
2013-01-19 14:32:00,46.8,30.6,29.86,SSW,210,5.0,9.0,53,0.00,,,0.00,Wunderground v.1.15,2013-01-19 19:32:00,
2013-01-19 14:37:00,46.8,30.6,29.86,South,187,3.0,9.0,53,0.00,,,0.00,Wunderground v.1.15,2013-01-19 19:37:00,
2013-01-19 14:42:00,46.8,30.6,29.86,SW,225,4.0,5.0,53,0.00,,,0.00,Wunderground v.1.15,2013-01-19 19:42:00,
2013-01-19 14:47:00,46.8,30.6,29.86,WNW,302,2.0,5.0,53,0.00,,,0.00,Wunderground v.1.15,2013-01-19 19:47:00,
2013-01-19 14:53:00,46.9,30.6,29.86,WSW,238,2.0,3.0,53,0.00,,,0.00,Wunderground v.1.15,2013-01-19 19:53:00,
2013-01-19 14:59:00,47.0,30.7,29.85,West,259,2.0,6.0,53,0.00,,,0.00,Wunderground v.1.15,2013-01-19 19:59:00,
2013-01-19 15:04:00,47.1,30.8,29.85,SSW,208,1.0,6.0,53,0.00,,,0.00,Wunderground v.1.15,2013-01-19 20:04:00,
2013-01-19 15:09:00,47.2,30.9,29.85,WSW,254,1.0,6.0,53,0.00,,,0.00,Wunderground v.1.15,2013-01-19 20:09:00,
2013-01-19 15:14:00,47.2,30.9,29.85,WSW,256,2.0,6.0,53,0.00,,,0.00,Wunderground v.1.15,2013-01-19 20:14:00,
2013-01-19 15:19:00,47.2,30.5,29.84,WSW,257,5.0,6.0,52,0.00,,,0.00,Wunderground v.1.15,2013-01-19 20:19:00,
2013-01-19 15:24:00,47.2,30.5,29.84,WSW,255,2.0,9.0,52,0.00,,,0.00,Wunderground v.1.15,2013-01-19 20:24:00,
2013-01-19 15:29:00,47.2,30.5,29.84,SSW,205,1.0,9.0,52,0.00,,,0.00,Wunderground v.1.15,2013-01-19 20:29:00,
2013-01-19 15:34:00,47.2,30.9,29.84,WSW,241,1.0,8.0,53,0.00,,,0.00,Wunderground v.1.15,2013-01-19 20:34:00,
2013-01-19 15:40:00,47.1,31.3,29.84,SSW,192,3.0,8.0,54,0.00,,,0.00,Wunderground v.1.15,2013-01-19 20:40:00,
2013-01-19 15:44:00,47.1,30.8,29.84,SSW,210,2.0,6.0,53,0.00,,,0.00,Wunderground v.1.15,2013-01-19 20:44:00,
2013-01-19 15:50:00,47.1,30.8,29.83,SSW,208,2.0,3.0,53,0.00,,,0.00,Wunderground v.1.15,2013-01-19 20:50:00,
2013-01-19 15:55:00,47.1,30.8,29.83,SSE,161,1.0,4.0,53,0.00,,,0.00,Wunderground v.1.15,2013-01-19 20:55:00,
2013-01-19 16:01:00,47.1,31.3,29.83,SSW,200,3.0,5.0,54,0.00,,,0.00,Wunderground v.1.15,2013-01-19 21:01:00,
2013-01-19 16:06:00,47.1,30.8,29.83,SSW,209,7.0,7.0,53,0.00,,,0.00,Wunderground v.1.15,2013-01-19 21:06:00,
2013-01-19 16:12:00,47.1,31.3,29.82,West,274,1.0,3.0,54,0.00,,,0.00,Wunderground v.1.15,2013-01-19 21:12:00,
2013-01-19 16:17:00,47.1,31.3,29.82,SSE,156,3.0,7.0,54,0.00,,,0.00,Wunderground v.1.15,2013-01-19 21:17:00,
2013-01-19 16:23:00,47.0,30.7,29.82,SSW,192,5.0,7.0,53,0.00,,,0.00,Wunderground v.1.15,2013-01-19 21:23:00,
2013-01-19 16:28:00,47.2,30.9,29.82,SW,234,4.0,8.0,53,0.00,,,0.00,Wunderground v.1.15,2013-01-19 21:28:00,
2013-01-19 16:34:00,47.2,31.4,29.81,West,266,5.0,5.0,54,0.00,,,0.00,Wunderground v.1.15,2013-01-19 21:34:00,
2013-01-19 16:39:00,47.1,30.8,29.81,SW,220,2.0,8.0,53,0.00,,,0.00,Wunderground v.1.15,2013-01-19 21:39:00,
2013-01-19 16:45:00,46.9,30.6,29.81,SSW,213,3.0,5.0,53,0.00,,,0.00,Wunderground v.1.15,2013-01-19 21:45:00,
2013-01-19 16:50:00,46.9,31.1,29.81,West,263,5.0,5.0,54,0.00,,,0.00,Wunderground v.1.15,2013-01-19 21:50:00,
2013-01-19 16:55:00,46.8,31.0,29.80,SW,229,0.0,6.0,54,0.00,,,0.00,Wunderground v.1.15,2013-01-19 21:55:00,
2013-01-19 17:01:00,46.7,30.9,29.80,SSW,206,3.0,3.0,54,0.00,,,0.00,Wunderground v.1.15,2013-01-19 22:01:00,
2013-01-19 17:07:00,46.5,30.7,29.80,SSW,211,4.0,4.0,54,0.00,,,0.00,Wunderground v.1.15,2013-01-19 22:07:00,
2013-01-19 17:12:00,46.5,30.7,29.80,WSW,246,2.0,4.0,54,0.00,,,0.00,Wunderground v.1.15,2013-01-19 22:12:00,
2013-01-19 17:17:00,46.4,30.6,29.79,WSW,246,2.0,4.0,54,0.00,,,0.00,Wunderground v.1.15,2013-01-19 22:17:00,
2013-01-19 17:22:00,46.2,30.5,29.79,WSW,246,0.0,2.0,54,0.00,,,0.00,Wunderground v.1.15,2013-01-19 22:22:00,
2013-01-19 17:27:00,46.1,30.4,29.79,South,178,2.0,3.0,54,0.00,,,0.00,Wunderground v.1.15,2013-01-19 22:27:00,
2013-01-19 17:33:00,46.0,30.7,29.78,South,175,2.0,3.0,55,0.00,,,0.00,Wunderground v.1.15,2013-01-19 22:33:00,
2013-01-19 17:38:00,45.9,30.6,29.78,South,175,0.0,3.0,55,0.00,,,0.00,Wunderground v.1.15,2013-01-19 22:38:00,
2013-01-19 17:43:00,45.7,30.4,29.78,South,175,0.0,1.0,55,0.00,,,0.00,Wunderground v.1.15,2013-01-19 22:43:00,
2013-01-19 17:48:00,45.5,30.7,29.78,South,175,0.0,2.0,56,0.00,,,0.00,Wunderground v.1.15,2013-01-19 22:48:00,
2013-01-19 17:53:00,45.3,30.5,29.77,South,175,0.0,1.0,56,0.00,,,0.00,Wunderground v.1.15,2013-01-19 22:53:00,
2013-01-19 17:58:00,45.2,30.9,29.77,South,175,0.0,1.0,57,0.00,,,0.00,Wunderground v.1.15,2013-01-19 22:58:00,
2013-01-19 18:03:00,45.1,30.8,29.77,South,175,0.0,0.0,57,0.00,,,0.00,Wunderground v.1.15,2013-01-19 23:03:00,
2013-01-19 18:08:00,45.0,30.7,29.76,South,175,0.0,2.0,57,0.00,,,0.00,Wunderground v.1.15,2013-01-19 23:08:00,
2013-01-19 18:13:00,44.9,30.6,29.76,South,175,0.0,0.0,57,0.00,,,0.00,Wunderground v.1.15,2013-01-19 23:13:00,
2013-01-19 18:18:00,44.8,30.5,29.76,South,175,0.0,1.0,57,0.00,,,0.00,Wunderground v.1.15,2013-01-19 23:18:00,
2013-01-19 18:23:00,44.7,30.8,29.75,South,175,0.0,2.0,58,0.00,,,0.00,Wunderground v.1.15,2013-01-19 23:23:00,
2013-01-19 18:28:00,44.6,30.7,29.75,South,175,0.0,2.0,58,0.00,,,0.00,Wunderground v.1.15,2013-01-19 23:28:00,
2013-01-19 18:33:00,44.6,30.7,29.75,South,175,0.0,1.0,58,0.00,,,0.00,Wunderground v.1.15,2013-01-19 23:33:00,
2013-01-19 18:38:00,44.5,30.6,29.74,SSE,151,0.0,4.0,58,0.00,,,0.00,Wunderground v.1.15,2013-01-19 23:38:00,
2013-01-19 18:43:00,44.4,30.5,29.73,East,94,0.0,2.0,58,0.00,,,0.00,Wunderground v.1.15,2013-01-19 23:43:00,
2013-01-19 18:48:00,44.3,30.4,29.73,South,187,0.0,2.0,58,0.00,,,0.00,Wunderground v.1.15,2013-01-19 23:48:00,
2013-01-19 18:53:00,44.3,30.9,29.73,South,182,0.0,1.0,59,0.00,,,0.00,Wunderground v.1.15,2013-01-19 23:53:00,
2013-01-19 18:59:00,44.3,30.4,29.73,SSE,154,0.0,3.0,58,0.00,,,0.00,Wunderground v.1.15,2013-01-19 23:59:00,
2013-01-19 19:04:00,44.3,30.9,29.73,SSE,160,0.0,2.0,59,0.00,,,0.00,Wunderground v.1.15,2013-01-20 00:04:00,
2013-01-19 19:09:00,44.3,30.9,29.72,SSE,160,0.0,2.0,59,0.00,,,0.00,Wunderground v.1.15,2013-01-20 00:09:00,
2013-01-19 19:14:00,44.2,30.8,29.72,SSE,160,0.0,0.0,59,0.00,,,0.00,Wunderground v.1.15,2013-01-20 00:14:00,
2013-01-19 19:19:00,44.1,30.7,29.72,SSE,160,1.0,2.0,59,0.00,,,0.00,Wunderground v.1.15,2013-01-20 00:19:00,
2013-01-19 19:24:00,44.1,30.7,29.71,SSW,193,0.0,3.0,59,0.00,,,0.00,Wunderground v.1.15,2013-01-20 00:24:00,
2013-01-19 19:31:00,44.1,30.7,29.71,SSW,192,0.0,1.0,59,0.00,,,0.00,Wunderground v.1.15,2013-01-20 00:31:00,
2013-01-19 19:36:00,44.2,30.8,29.71,SSW,194,2.0,3.0,59,0.00,,,0.00,Wunderground v.1.15,2013-01-20 00:36:00,
2013-01-19 19:41:00,44.2,30.8,29.70,SSE,161,1.0,4.0,59,0.00,,,0.00,Wunderground v.1.15,2013-01-20 00:41:00,
2013-01-19 19:46:00,44.3,30.9,29.70,South,171,2.0,4.0,59,0.00,,,0.00,Wunderground v.1.15,2013-01-20 00:46:00,
2013-01-19 19:52:00,44.6,30.7,29.69,SSW,207,2.0,5.0,58,0.00,,,0.00,Wunderground v.1.15,2013-01-20 00:52:00,
2013-01-19 19:58:00,45.0,30.7,29.69,SSW,200,3.0,5.0,57,0.00,,,0.00,Wunderground v.1.15,2013-01-20 00:58:00,
2013-01-19 20:03:00,45.4,30.6,29.69,SSW,205,2.0,4.0,56,0.00,,,0.00,Wunderground v.1.15,2013-01-20 01:03:00,
2013-01-19 20:08:00,45.6,30.3,29.69,South,180,3.0,4.0,55,0.00,,,0.00,Wunderground v.1.15,2013-01-20 01:08:00,
2013-01-19 20:13:00,45.9,30.6,29.69,SSE,168,1.0,5.0,55,0.00,,,0.00,Wunderground v.1.15,2013-01-20 01:13:00,
2013-01-19 20:18:00,46.2,30.5,29.69,West,277,2.0,6.0,54,0.00,,,0.00,Wunderground v.1.15,2013-01-20 01:18:00,
2013-01-19 20:25:00,46.8,29.6,29.68,SSW,212,5.0,10.0,51,0.00,,,0.00,Wunderground v.1.15,2013-01-20 01:25:00,
2013-01-19 20:30:00,47.2,29.0,29.68,SW,223,6.0,6.0,49,0.00,,,0.00,Wunderground v.1.15,2013-01-20 01:30:00,
2013-01-19 20:35:00,47.6,28.9,29.68,SSW,207,3.0,7.0,48,0.00,,,0.00,Wunderground v.1.15,2013-01-20 01:35:00,
2013-01-19 20:40:00,47.9,28.1,29.67,SSW,199,4.0,4.0,46,0.00,,,0.00,Wunderground v.1.15,2013-01-20 01:40:00,
2013-01-19 20:45:00,48.2,27.8,29.67,SSW,194,7.0,7.0,45,0.00,,,0.00,Wunderground v.1.15,2013-01-20 01:45:00,
2013-01-19 20:52:00,48.7,27.2,29.67,SW,232,5.0,12.0,43,0.00,,,0.00,Wunderground v.1.15,2013-01-20 01:52:00,
2013-01-19 20:57:00,48.9,26.8,29.67,SW,222,6.0,12.0,42,0.00,,,0.00,Wunderground v.1.15,2013-01-20 01:57:00,
2013-01-19 21:02:00,48.9,26.8,29.67,SSW,205,8.0,8.0,42,0.00,,,0.00,Wunderground v.1.15,2013-01-20 02:02:00,
2013-01-19 21:08:00,49.1,26.4,29.66,SW,219,4.0,9.0,41,0.00,,,0.00,Wunderground v.1.15,2013-01-20 02:08:00,
2013-01-19 21:13:00,49.1,26.4,29.66,SSW,202,5.0,11.0,41,0.00,,,0.00,Wunderground v.1.15,2013-01-20 02:13:00,
2013-01-19 21:18:00,49.1,26.4,29.66,SW,221,3.0,11.0,41,0.00,,,0.00,Wunderground v.1.15,2013-01-20 02:18:00,
2013-01-19 21:23:00,49.2,25.9,29.65,SW,236,7.0,12.0,40,0.00,,,0.00,Wunderground v.1.15,2013-01-20 02:23:00,
2013-01-19 21:29:00,49.3,26.0,29.65,WSW,256,3.0,12.0,40,0.00,,,0.00,Wunderground v.1.15,2013-01-20 02:29:00,
2013-01-19 21:34:00,49.3,26.0,29.65,West,259,5.0,10.0,40,0.00,,,0.00,Wunderground v.1.15,2013-01-20 02:34:00,
2013-01-19 21:39:00,49.2,25.9,29.64,SSW,203,11.0,11.0,40,0.00,,,0.00,Wunderground v.1.15,2013-01-20 02:39:00,
2013-01-19 21:44:00,49.4,25.4,29.64,SW,232,3.0,14.0,39,0.00,,,0.00,Wunderground v.1.15,2013-01-20 02:44:00,
2013-01-19 21:49:00,49.4,25.4,29.64,WSW,238,14.0,14.0,39,0.00,,,0.00,Wunderground v.1.15,2013-01-20 02:49:00,
2013-01-19 21:54:00,49.3,25.4,29.63,WSW,238,6.0,9.0,39,0.00,,,0.00,Wunderground v.1.15,2013-01-20 02:54:00,
2013-01-19 21:59:00,49.3,26.0,29.63,West,270,3.0,10.0,40,0.00,,,0.00,Wunderground v.1.15,2013-01-20 02:59:00,
2013-01-19 22:05:00,49.2,25.9,29.63,WSW,245,8.0,8.0,40,0.00,,,0.00,Wunderground v.1.15,2013-01-20 03:05:00,
2013-01-19 22:10:00,49.3,26.0,29.63,WSW,257,6.0,6.0,40,0.00,,,0.00,Wunderground v.1.15,2013-01-20 03:10:00,
2013-01-19 22:15:00,49.2,25.9,29.63,SSW,202,11.0,12.0,40,0.00,,,0.00,Wunderground v.1.15,2013-01-20 03:15:00,
2013-01-19 22:20:00,49.3,26.6,29.63,SW,227,6.0,6.0,41,0.00,,,0.00,Wunderground v.1.15,2013-01-20 03:20:00,
2013-01-19 22:25:00,49.3,26.0,29.62,WSW,237,5.0,9.0,40,0.00,,,0.00,Wunderground v.1.15,2013-01-20 03:25:00,
2013-01-19 22:31:00,49.4,26.1,29.62,SW,231,2.0,6.0,40,0.00,,,0.00,Wunderground v.1.15,2013-01-20 03:31:00,
2013-01-19 22:37:00,49.1,26.4,29.62,SSW,205,6.0,9.0,41,0.00,,,0.00,Wunderground v.1.15,2013-01-20 03:37:00,
2013-01-19 22:42:00,49.1,26.4,29.62,SW,235,5.0,10.0,41,0.00,,,0.00,Wunderground v.1.15,2013-01-20 03:42:00,
2013-01-19 22:48:00,48.9,26.8,29.61,WSW,246,7.0,10.0,42,0.00,,,0.00,Wunderground v.1.15,2013-01-20 03:48:00,
2013-01-19 22:53:00,49.0,26.9,29.61,SW,220,5.0,9.0,42,0.00,,,0.00,Wunderground v.1.15,2013-01-20 03:53:00,
2013-01-19 22:58:00,48.7,26.6,29.61,SW,223,5.0,9.0,42,0.00,,,0.00,Wunderground v.1.15,2013-01-20 03:58:00,
2013-01-19 23:03:00,48.6,26.5,29.60,SW,221,4.0,10.0,42,0.00,,,0.00,Wunderground v.1.15,2013-01-20 04:03:00,
2013-01-19 23:08:00,48.5,27.0,29.60,West,267,6.0,11.0,43,0.00,,,0.00,Wunderground v.1.15,2013-01-20 04:08:00,
2013-01-19 23:13:00,48.3,27.4,29.60,WSW,240,3.0,6.0,44,0.00,,,0.00,Wunderground v.1.15,2013-01-20 04:13:00,
2013-01-19 23:18:00,48.2,27.3,29.60,SSW,202,3.0,7.0,44,0.00,,,0.00,Wunderground v.1.15,2013-01-20 04:18:00,
2013-01-19 23:23:00,48.1,27.2,29.59,NW,315,4.0,8.0,44,0.00,,,0.00,Wunderground v.1.15,2013-01-20 04:23:00,
2013-01-19 23:28:00,48.1,27.2,29.59,SSW,209,2.0,10.0,44,0.00,,,0.00,Wunderground v.1.15,2013-01-20 04:28:00,
2013-01-19 23:33:00,48.0,27.1,29.59,SSE,159,3.0,7.0,44,0.00,,,0.00,Wunderground v.1.15,2013-01-20 04:33:00,
2013-01-19 23:38:00,48.0,27.1,29.58,SW,221,7.0,10.0,44,0.00,,,0.00,Wunderground v.1.15,2013-01-20 04:38:00,
2013-01-19 23:43:00,48.2,27.3,29.57,South,190,4.0,12.0,44,0.00,,,0.00,Wunderground v.1.15,2013-01-20 04:43:00,
2013-01-19 23:48:00,48.3,27.4,29.57,SSW,206,5.0,12.0,44,0.00,,,0.00,Wunderground v.1.15,2013-01-20 04:48:00,
2013-01-19 23:53:00,48.3,27.4,29.57,SSW,213,3.0,8.0,44,0.00,,,0.00,Wunderground v.1.15,2013-01-20 04:53:00,
2013-01-19 23:59:00,48.3,27.9,29.56,SW,225,4.0,8.0,45,0.00,,,0.00,Wunderground v.1.15,2013-01-20 04:59:00,